Location: Chippewa Lake
(41.0698°N, 81.9010°W)
Time: 00:47:42
(UTC+00:00)

CZ-4B R/B - Pass Details

Date: 09 May 2021
Orbit: 703 x 802 km, 98.9° (Epoch: 24 June)

Event Time Altitude Azimuth Distance (km) Brightness Sun altitude
Rises 08:14:02 0° 18° (NNE) 3,169 7.8 -19.5°
Reaches altitude 10° 08:16:20 10° 23° (NNE) 2,257 7.0 -19.2°
Maximum altitude 08:21:13 56° 101° (ESE) 894 4.0 -18.5°
Enters shadow 08:24:54 18° 176° (S) 1,813 5.1 -18.0°
